Location: *
(46.2762°S, 173.7770°W)
Time: 00:34:53
(UTC+00:00)

Daily predictions for brighter satellites

Satellite Brightness Start Highest point End
(mag) Time Altitude Azimuth Time Altitude Azimuth Time Altitude Azimuth
Cosmos 1624 Rocket 4.4 04:28:30 10° SSW 04:33:43 46° ESE 04:38:50 10° NE
Cosmos 1707 2.8 04:30:38 10° S 04:34:32 57° ESE 04:38:21 10° NNE
SKYMED 2 3.6 04:31:00 10° NNE 04:35:21 68° ESE 04:39:46 10° S
DMSP B5D2-2 4.2 04:30:50 10° NNE 04:35:59 58° ESE 04:41:12 10° S
USA 267 3.4 04:29:42 10° ENE 04:36:12 63° SSE 04:42:44 10° SW
ARIANE 5 R/B 4.3 04:31:48 10° S 04:36:20 30° WSW 04:40:47 10° WNW
Cosmos 1461 3.9 04:33:11 10° NW 04:37:43 51° SW 04:42:12 10° SSE
Envisat 3.5 04:32:45 10° S 04:37:54 67° WSW 04:42:58 10° NNW
Cosmos 1833 Rocket 3.6 04:35:44 10° S 04:40:32 27° SE 04:45:17 10° ENE
CZ-2C R/B 4.2 04:36:26 10° NNW 04:41:20 40° W 04:46:16 10° SSW
Meteor 2-21 4.5 04:40:07 10° N 04:46:14 72° E 04:52:23 10° SSE
NOAA 11 4.2 04:40:48 10° SSE 04:46:26 78° ENE 04:51:58 10° N
Nadezhda 4 Rocket 4.1 04:40:27 10° N 04:46:45 82° E 04:53:12 10° S
Cosmos 405 Rocket 2.7 04:43:09 10° S 04:47:06 72° E 04:51:02 10° NNE
BREEZE-M DEB (TANK) 2.0 04:45:25 10° WSW 04:47:36 66° SSE 04:51:04 10° ENE
CENTAUR R/B 4.2 04:50:29 10° SW 04:54:27 16° S 04:58:06 10° SE
Cosmos 2056 Rocket 3.5 04:50:52 10° SSW 04:56:06 68° ESE 05:01:21 10° NNE
Cosmos 1420 Rocket 4.1 04:51:51 10° SSW 04:57:03 57° ESE 05:02:11 10° NE
EXPRESS MD2 3.1 04:55:43 10° NW 04:58:09 34° NNE 04:59:41 15° E
Cosmos 1844 3.9 04:55:10 10° NNW 05:00:45 76° WSW 05:06:25 10° SSE
Cosmos 2026 Rocket 4.1 04:55:36 10° NNE 05:01:37 54° E 05:07:37 10° SSE
Meteor 1-4 Rocket 2.5 04:58:22 10° N 05:01:51 58° E 05:05:20 10° SSE
Cosmos 1939 Rocket 3.3 04:58:15 10° SSE 05:02:15 44° E 05:06:14 10° N
Landsat 5 4.1 04:59:50 10° NE 05:03:12 29° ESE 05:06:35 10° S
NOSS 3-1 (C) 4.2 05:00:39 10° NNW 05:09:40 75° NE 05:17:21 11° SE
Cosmos 2221 Rocket 3.5 05:07:25 10° S 05:11:55 68° E 05:16:22 10° NNE
SJ-7 4.5 05:09:07 10° SSE 05:13:09 56° E 05:17:10 10° N
ATLAS CENTAUR R/B 3.6 05:13:11 10° SW 05:14:21 11° SSW 05:15:30 10° SSW
Cosmos 2082 Rocket 3.3 05:12:25 10° S 05:17:00 24° SE 05:19:54 16° E
CZ-3B R/B 1.8 05:11:59 10° NW 05:17:06 64° NE 05:18:45 22° ESE
Cosmos 1975 3.8 05:14:47 10° NNW 05:18:44 50° WSW 05:22:46 10° S
SL-14 R/B 3.6 05:17:46 10° S 05:21:32 41° ESE 05:25:14 10° NNE
COSMO-SKYMED 1 4.2 05:19:24 10° NNW 05:23:31 39° W 05:27:41 10° SSW
Okean 2 3.8 05:20:18 10° SSW 05:24:28 67° W 05:28:36 10° N
ISS -2.5 05:22:41 10° WSW 05:25:57 42° NW 05:29:11 10° NE
ATLAS 3B R/B 3.8 05:19:41 10° WNW 05:26:42 42° SW 05:33:22 10° SSE
Cosmos 1726 2.9 05:24:10 10° NNE 05:27:20 28° E 05:28:09 26° ESE
NOSS 3-1 (A) 4.3 05:18:38 10° NNW 05:27:28 61° ENE 05:34:00 16° SE
CZ-2D R/B 4.0 05:27:23 22° SE 05:29:10 32° E 05:32:41 10° NNE
BREEZE-M DEB (TANK) 1.1 05:29:06 10° WNW 05:31:07 84° NNE 05:31:51 39° ESE
Cosmos 1733 Rocket 3.3 05:28:05 10° NNW 05:32:26 72° W 05:36:53 10° S
Cosmos 1092 Rocket 4.2 05:26:25 10° N 05:32:48 80° W 05:39:17 10° S
CZ-4C R/B 3.7 05:29:50 10° NE 05:32:58 31° ESE 05:36:06 10° S
Cosmos 2278 Rocket 2.8 05:28:33 10° N 05:33:40 36° ENE 05:36:31 22° ESE
SL-19 R/B 4.2 05:31:18 10° NNE 05:37:00 78° ESE 05:42:39 10° SSW
Meteor 1-31 Rocket 3.6 05:35:00 10° S 05:38:46 51° WSW 05:42:28 10° NNW
H-2A R/B 2.1 05:35:35 10° SSE 05:40:49 59° E 05:46:08 10° N
CZ-4B R/B 3.3 05:40:23 16° SSE 05:43:52 51° E 05:48:16 10° N
USA 215 3.5 05:38:55 18° SE 05:43:54 64° SSW 05:50:25 10° WNW
CZ-4C R/B 3.0 05:35:38 10° NW 05:44:02 81° SW 05:49:41 18° SE
Cosmos 1766 3.4 05:40:53 10° NNE 05:44:37 48° E 05:46:05 31° SE
Cosmos 1626 3.9 05:45:15 10° SSW 05:48:40 34° W 05:52:02 10° NNW
ADEOS 3.5 05:44:01 10° SSE 05:49:20 77° ENE 05:54:36 10° N
Cosmos 2266 Rocket 4.4 05:44:38 10° NNE 05:50:27 40° E 05:56:24 10° SSE
Cosmos 1844 Rocket 4.3 05:45:39 10° WNW 05:50:37 30° SW 05:55:40 10° S
Cosmos 1048 Rocket 4.2 05:48:23 10° N 05:53:36 55° ENE 05:56:19 28° SE
CORIOLIS 4.2 05:49:58 13° SSE 05:54:55 58° E 06:00:15 10° N
Cosmos 1452 Rocket 3.4 05:51:45 10° SSW 05:57:08 75° ESE 06:02:27 10° NNE
AQUARIUS 4.1 05:55:37 24° SSE 05:58:15 63° E 06:02:45 10° N
Cosmos 1733 4.0 05:55:02 10° NNW 05:58:50 53° WSW 06:02:41 10° S
Cosmos 1378 Rocket 4.3 05:55:17 10° SSW 05:59:45 57° W 06:04:08 10° N
FengYun 1-2 T 4.5 05:54:31 10° S 06:00:06 72° WSW 06:05:40 10° NNW
Cosmos 1110 Rocket 4.0 05:56:13 10° SSW 06:01:22 53° ESE 06:04:22 24° NE
Cosmos 1805 4.1 05:59:15 10° NNW 06:03:03 50° WSW 06:06:54 10° S
SJ-11-01 4.5 06:07:09 47° E 06:07:16 47° E 06:11:50 10° N
Cosmos 468 4.5 06:05:57 10° N 06:11:16 68° ENE 06:13:14 39° SE
Cosmos 1417 Rocket 4.4 06:05:52 10° S 06:12:11 86° E 06:18:22 10° N
SMAP 3.1 06:08:31 17° SSE 06:12:14 82° WSW 06:16:56 10° NNW
ATLAS 5 CENTAUR R/B 2.3 06:07:55 10° SW 06:13:36 65° WNW 06:17:34 14° NNE
COSMOS 2406 3.1 06:10:11 10° SSW 06:16:00 74° ESE 06:20:04 20° NE
SL-08 RB Rocket 4.4 06:19:48 40° NE 06:19:48 40° NE 06:23:05 10° N
USA 267 4.1 06:12:58 10° NNE 06:19:18 50° NW 06:25:44 10° WSW
Cosmos 1782 Rocket 3.5 06:17:21 10° N 06:21:33 71° NE 06:21:33 71° NE
Cosmos 1833 Rocket 3.2 06:19:17 10° SSW 06:24:52 59° WNW 06:30:23 10° N
Meteor 1-15 Rocket 4.2 06:19:36 10° N 06:25:24 89° WSW 06:29:40 19° S
Cosmos 1908 Rocket 4.2 06:22:13 10° NNW 06:26:38 55° WSW 06:29:42 19° S
Iridium 2 4.3 06:23:10 10° NNW 06:26:52 54° W 06:27:51 40° SSW
Cosmos 2315 Rocket 3.9 06:30:55 10° S 06:37:22 67° E 06:43:45 10° NNE
Meteor 1-22 Rocket 3.9 06:38:06 10° N 06:43:28 89° ENE 06:43:47 80° SSE
ARGOS 3.2 06:43:52 39° S 06:45:57 75° WSW 06:51:21 10° NNW
NOAA 6 4.4 06:44:27 31° S 06:46:51 63° WSW 06:51:59 10° NNW
CENTAUR R/B 3.8 06:42:34 10° SSW 06:45:55 22° S 06:45:55 22° S
SeaSat 1 3.3 06:51:43 40° N 06:51:43 40° N 06:54:53 10° NNW
USA 229 DEB 4.1 06:42:24 10° NW 06:50:13 70° SW 06:53:00 42° SSE
USA 229 4.1 06:42:28 10° NW 06:50:17 71° SW 06:53:03 42° SSE
Meteor 2-5 Rocket 4.0 06:47:36 10° SSW 06:53:20 65° W 06:58:54 10° N
Cosmos 2082 Rocket 2.3 06:55:55 10° SSW 07:01:39 72° WNW 07:01:50 71° NW
Cosmos 1655 Rocket 4.3 06:56:28 10° NNW 07:02:51 66° W 07:08:29 14° S
Meteor 1-24 Rocket 4.1 06:59:10 10° SSW 07:04:38 59° W 07:09:54 10° N
Cosmos 1943 Rocket 4.2 07:09:53 10° NNW 07:11:05 17° N 07:11:05 17° N
Cosmos 2278 Rocket 3.2 07:12:20 10° NW 07:17:41 41° SW 07:18:24 39° SW
ATLAS 3B R/B 4.4 07:14:15 10° WSW 07:19:24 20° SSW 07:20:37 19° S
H-2A R/B 4.2 07:15:49 10° SSW 07:19:51 23° WSW 07:23:56 10° WNW
USA 215 4.2 07:26:16 37° S 07:26:16 37° S 07:32:13 10° WSW
CZ-4C R/B 4.1 07:26:55 10° W 07:33:32 29° SSW 07:34:52 27° SSW
BREEZE-M DEB (TANK) 4.3 07:35:49 10° WSW 07:48:13 58° WSW 07:48:13 58° WSW
